TimeCDT,TemperatureF,Dew PointF,Humidity,Sea Level PressureIn,VisibilityMPH,Wind Direction,Wind SpeedMPH,Gust SpeedMPH,PrecipitationIn,Events,Conditions,WindDirDegrees,DateUTC
12:53 AM,55.9,54.0,93,30.13,8.0,Calm,Calm,-,N/A,,Clear,0,2013-10-10 05:53:00
1:28 AM,57.2,55.4,94,30.14,2.0,Calm,Calm,-,N/A,,Clear,0,2013-10-10 06:28:00
1:43 AM,57.2,55.4,94,30.14,1.0,Calm,Calm,-,N/A,,Clear,0,2013-10-10 06:43:00
1:50 AM,57.2,55.4,94,30.14,0.5,Calm,Calm,-,N/A,Fog,Fog,0,2013-10-10 06:50:00
1:53 AM,57.0,55.0,93,30.13,0.8,Calm,Calm,-,N/A,,Clear,0,2013-10-10 06:53:00
2:00 AM,57.2,55.4,94,30.14,1.5,Calm,Calm,-,N/A,,Clear,0,2013-10-10 07:00:00
2:03 AM,57.2,57.2,100,30.14,4.0,Calm,Calm,-,N/A,,Clear,0,2013-10-10 07:03:00
2:19 AM,55.4,53.6,94,30.14,1.5,Calm,Calm,-,N/A,,Clear,0,2013-10-10 07:19:00
2:24 AM,53.6,53.6,100,30.14,0.8,Calm,Calm,-,N/A,,Partly Cloudy,0,2013-10-10 07:24:00
2:30 AM,53.6,53.6,100,30.14,1.5,Calm,Calm,-,N/A,,Scattered Clouds,0,2013-10-10 07:30:00
2:32 AM,53.6,53.6,100,30.14,3.0,Calm,Calm,-,N/A,,Scattered Clouds,0,2013-10-10 07:32:00
2:46 AM,55.4,53.6,94,30.14,1.5,Calm,Calm,-,N/A,,Mostly Cloudy,0,2013-10-10 07:46:00
2:49 AM,55.4,53.6,94,30.14,0.8,Calm,Calm,-,N/A,,Mostly Cloudy,0,2013-10-10 07:49:00
2:53 AM,55.0,54.0,96,30.13,0.8,Calm,Calm,-,N/A,,Mostly Cloudy,0,2013-10-10 07:53:00
3:08 AM,55.4,53.6,94,30.14,1.5,Calm,Calm,-,N/A,,Mostly Cloudy,0,2013-10-10 08:08:00
3:10 AM,55.4,53.6,94,30.14,4.0,Calm,Calm,-,N/A,,Mostly Cloudy,0,2013-10-10 08:10:00
3:49 AM,55.4,53.6,94,30.14,1.8,Calm,Calm,-,N/A,,Clear,0,2013-10-10 08:49:00
3:53 AM,54.0,53.1,97,30.13,0.5,Calm,Calm,-,N/A,Fog,Fog,0,2013-10-10 08:53:00
4:01 AM,53.6,53.6,100,30.14,0.2,Calm,Calm,-,N/A,Fog,Fog,0,2013-10-10 09:01:00
4:11 AM,55.4,53.6,94,30.14,0.8,Calm,Calm,-,N/A,,Clear,0,2013-10-10 09:11:00
4:15 AM,55.4,53.6,94,30.14,1.5,Calm,Calm,-,N/A,,Clear,0,2013-10-10 09:15:00
4:17 AM,55.4,53.6,94,30.14,3.0,Calm,Calm,-,N/A,,Clear,0,2013-10-10 09:17:00
4:25 AM,55.4,55.4,100,30.14,1.8,Calm,Calm,-,N/A,,Clear,0,2013-10-10 09:25:00
4:28 AM,53.6,53.6,100,30.14,0.8,Calm,Calm,-,N/A,,Clear,0,2013-10-10 09:28:00
4:48 AM,51.8,50.0,94,30.15,1.5,Calm,Calm,-,N/A,,Clear,0,2013-10-10 09:48:00
4:53 AM,52.0,50.0,93,30.14,1.5,Calm,Calm,-,N/A,,Clear,0,2013-10-10 09:53:00
4:57 AM,51.8,51.8,100,30.14,0.8,Calm,Calm,-,N/A,,Clear,0,2013-10-10 09:57:00
5:11 AM,51.8,50.0,94,30.15,1.8,Calm,Calm,-,N/A,,Clear,0,2013-10-10 10:11:00
5:13 AM,51.8,50.0,94,30.15,3.0,Calm,Calm,-,N/A,,Clear,0,2013-10-10 10:13:00
5:25 AM,51.8,51.8,100,30.15,6.0,Calm,Calm,-,N/A,,Partly Cloudy,0,2013-10-10 10:25:00
5:38 AM,53.6,51.8,94,30.15,1.5,Calm,Calm,-,N/A,,Mostly Cloudy,0,2013-10-10 10:38:00
5:45 AM,55.4,53.6,94,30.15,1.2,Calm,Calm,-,N/A,,Scattered Clouds,0,2013-10-10 10:45:00
5:48 AM,55.4,53.6,94,30.15,2.0,Calm,Calm,-,N/A,,Scattered Clouds,0,2013-10-10 10:48:00
5:53 AM,54.0,53.1,97,30.15,6.0,Calm,Calm,-,N/A,,Scattered Clouds,0,2013-10-10 10:53:00
6:49 AM,51.8,51.8,100,30.16,1.2,Calm,Calm,-,N/A,,Clear,0,2013-10-10 11:49:00
6:53 AM,53.1,52.0,96,30.16,0.5,Calm,Calm,-,N/A,Fog,Fog,0,2013-10-10 11:53:00
7:00 AM,53.6,51.8,94,30.16,1.2,Calm,Calm,-,N/A,,Clear,0,2013-10-10 12:00:00
7:02 AM,53.6,53.6,100,30.16,3.0,Calm,Calm,-,N/A,,Clear,0,2013-10-10 12:02:00
7:14 AM,51.8,51.8,100,30.16,1.8,Calm,Calm,-,N/A,,Clear,0,2013-10-10 12:14:00
7:24 AM,53.6,51.8,94,30.17,3.0,Calm,Calm,-,N/A,,Partly Cloudy,0,2013-10-10 12:24:00
7:44 AM,55.4,53.6,94,30.17,8.0,Calm,Calm,-,N/A,,Scattered Clouds,0,2013-10-10 12:44:00
7:53 AM,57.0,55.0,93,30.17,7.0,Calm,Calm,-,N/A,,Partly Cloudy,0,2013-10-10 12:53:00
8:53 AM,63.0,57.9,84,30.17,10.0,Calm,Calm,-,N/A,,Clear,0,2013-10-10 13:53:00
9:53 AM,68.0,59.0,73,30.17,10.0,Calm,Calm,-,N/A,,Clear,0,2013-10-10 14:53:00
10:53 AM,73.9,57.9,57,30.17,10.0,Calm,Calm,-,N/A,,Clear,0,2013-10-10 15:53:00
11:53 AM,77.0,55.9,48,30.15,10.0,NE,11.5,-,N/A,,Partly Cloudy,50,2013-10-10 16:53:00
12:53 PM,78.1,57.0,48,30.13,10.0,Variable,6.9,-,N/A,,Scattered Clouds,0,2013-10-10 17:53:00
1:53 PM,75.9,55.0,48,30.11,10.0,North,4.6,-,N/A,,Partly Cloudy,360,2013-10-10 18:53:00
2:53 PM,77.0,55.9,48,30.10,10.0,NNE,8.1,-,N/A,,Clear,30,2013-10-10 19:53:00
3:53 PM,77.0,55.0,47,30.08,10.0,ENE,4.6,-,N/A,,Partly Cloudy,60,2013-10-10 20:53:00
4:53 PM,75.0,57.0,53,30.07,10.0,NE,8.1,-,N/A,,Clear,40,2013-10-10 21:53:00
5:53 PM,69.1,55.9,63,30.07,10.0,NE,4.6,-,N/A,,Clear,50,2013-10-10 22:53:00
6:53 PM,66.0,55.0,68,30.06,10.0,Calm,Calm,-,N/A,,Clear,0,2013-10-10 23:53:00
7:53 PM,63.0,55.0,75,30.07,10.0,Calm,Calm,-,N/A,,Clear,0,2013-10-11 00:53:00
8:53 PM,60.1,55.0,83,30.07,10.0,Calm,Calm,-,N/A,,Clear,0,2013-10-11 01:53:00
9:53 PM,57.9,55.0,90,30.08,10.0,Calm,Calm,-,N/A,,Clear,0,2013-10-11 02:53:00
10:53 PM,57.9,54.0,87,30.07,10.0,Calm,Calm,-,N/A,,Clear,0,2013-10-11 03:53:00
11:53 PM,54.0,53.1,97,30.06,5.0,Calm,Calm,-,N/A,,Clear,0,2013-10-11 04:53:00